Location: Marne
(34.0056°N, 117.9064°W)
Time: 18:42:42
(UTC+00:00)

SL-08 R/B - Pass Details

Date: 18 January 2020
Orbit: 951 x 1018 km, 83.0° (Epoch: 26 February)

Event Time Altitude Azimuth Distance (km) Brightness Sun altitude
Rises 02:53:24 0° 171° (S) 3,637 7.5 -21.8°
Reaches altitude 10° 02:55:56 10° 167° (SSE) 2,702 6.8 -22.3°
Maximum altitude 03:01:56 55° 91° (E) 1,168 4.5 -23.5°
Enters shadow 03:03:34 43° 45° (NE) 1,348 4.8 -23.8°
